Content
SEND FEEDBACK

Daily
Averages
Monthly
Summary
United States of America

FREEBURG, PENNSYLVANIA


Home > North America > United States > Pennsylvania
Elevation: 489 feet     Latitude: 40 46N     Longitude: 076 52W

WEATHER
 
SELECT A DAY
Number of Records: 197,272;   Date Range: 8/13/97 - 12/24/14
 
SHARE

PRINT THIS DATA

[ ← Previous Day ]
WEATHER ALMANAC - JANUARY 31, 2013
[ Next Day → ]
[ °C ]   °F
Weather ElementAverageHighLow
Temperature37.9 °F55.4 °F (1:40 am)27 °F (8:53 pm)
Dewpoint28.4 °F52 °F (12:53 am)10.9 °F (7:53 pm)
Humidity69.7 %100 % (2:48 am)47 % (8:53 am)
Barometer29.50 in29.83 in (7:53 pm)29.12 in (2:53 am)
Wind Speed10.6 mph18.4 mph (7:53 am)
Wind Gust33.4 mph (7:53 am)
Weather ElementAverage
Visibility6.6 mi
Wind DirectionWSW (235.5 °)

Weather ElementTotal
Precipitation1.19 in
Heating Degree Days23.8 (Base 65)
Averaged from 40 records on January 31, 2013
WEATHER CONDITIONS BREAKOUT
WIND DIRECTION BREAKOUT
WEATHER BY HOUR - JANUARY 31, 2013
[ °C ]   °F
Local TimeTemperatureDewpointHumidityBarometerVisibilityWind DirectionWind SpeedGust SpeedPrecipitationEventsConditions
12:28 AM53.6 °F51.8 °F94 %29.18 in4.0 miSSE (160°)8.1 mph0.11 inRainHeavy Rain
12:49 AM53.6 °F51.8 °F94 %29.15 in6.0 miSouth (180°)6.9 mph0.17 inRainRain
12:53 AM54.0 °F52.0 °F93 %29.15 in5.0 miSouth (170°)9.2 mph0.18 inRainHeavy Rain
1:40 AM55.4 °F51.8 °F88 %29.16 in2.5 miWSW (240°)8.1 mph17.3 mph0.13 inRainRain
1:49 AM55.4 °F51.8 °F88 %29.15 in8.0 miSW (230°)8.1 mph21.9 mph0.13 inRainLight Rain
1:53 AM55.0 °F51.1 °F86 %29.13 in8.0 miSW (220°)4.6 mph16.1 mph0.13 inRainLight Rain
2:48 AM51.8 °F51.8 °F100 %29.13 in5.0 miCalm0.08 inRainRain
2:53 AM52.0 °F51.1 °F97 %29.12 in4.0 miCalm0.09 inRainRain
3:28 AM51.8 °F46.4 °F82 %29.13 in5.0 miWest (280°)11.5 mph28.8 mph0.05 inRainRain
3:43 AM51.8 °F44.6 °F76 %29.16 in10.0 miWSW (250°)9.2 mph17.3 mph0.05 inRainLight Rain
3:53 AM51.1 °F43.0 °F74 %29.17 in10.0 miNorth0.05 inRainLight Rain
4:53 AM44.1 °F33.1 °F65 %29.22 in10.0 miWest (270°)15.0 mph25.3 mph0.01 inOvercast
5:53 AM41.0 °F28.9 °F62 %29.31 in10.0 miWest (280°)13.8 mph29.9 mphOvercast
6:53 AM39.0 °F26.1 °F60 %29.37 in10.0 miWest (260°)13.8 mph28.8 mphPartly Cloudy
7:53 AM37.9 °F21.0 °F51 %29.43 in10.0 miWest (280°)18.4 mph33.4 mphClear
8:53 AM37.9 °F19.0 °F47 %29.47 in10.0 miWSW (250°)9.2 mph25.3 mphPartly Cloudy
9:53 AM36.0 °F23.0 °F59 %29.51 in10.0 miWest (270°)11.5 mph25.3 mphPartly Cloudy
10:53 AM37.9 °F19.9 °F48 %29.55 in10.0 miWest (260°)16.1 mph26.5 mphPartly Cloudy
11:53 AM37.0 °F19.0 °F48 %29.57 in10.0 miWSW (240°)15.0 mph26.5 mphOvercast
12:53 PM34.0 °F17.1 °F50 %29.60 in10.0 miWest (280°)16.1 mph29.9 mphOvercast
1:53 PM32.0 °F18.0 °F56 %29.64 in7.0 miWest (280°)13.8 mph27.6 mph0.00 inSnowLight Snow
1:57 PM30.2 °F21.2 °F69 %29.64 in1.0 miWest (260°)17.3 mph27.6 mph0.00 inSnowLight Snow
2:04 PM28.4 °F24.8 °F86 %29.64 in0.2 miWest (260°)12.7 mph27.6 mph0.00 inSnowHeavy Snow
2:14 PM30.2 °F26.6 °F86 %29.65 in0.2 miWSW (250°)8.1 mph24.2 mph0.00 inFog-SnowSnow
2:21 PM30.2 °F24.8 °F80 %29.65 in1.0 miWest (270°)9.2 mph0.00 inSnowLight Snow
2:23 PM30.2 °F23.0 °F75 %29.65 in2.5 miWest (260°)11.5 mph19.6 mph0.00 inSnowLight Snow
2:30 PM30.2 °F21.2 °F69 %29.65 in4.0 miWest (270°)12.7 mph20.7 mph0.00 inSnowLight Snow
2:34 PM30.2 °F17.6 °F60 %29.65 in7.0 miWest (280°)18.4 mph26.5 mph0.00 inSnowLight Snow
2:53 PM30.9 °F17.1 °F57 %29.67 in10.0 miWest (270°)11.5 mph24.2 mph0.00 inOvercast
3:53 PM30.9 °F19.0 °F61 %29.69 in10.0 miWSW (240°)9.2 mph16.1 mph0.00 inOvercast
4:21 PM30.2 °F19.4 °F64 %29.69 in1.5 miWest (270°)11.5 mph20.7 mph0.00 inSnowLight Snow
4:44 PM28.4 °F21.2 °F74 %29.71 in0.8 miWest (260°)16.1 mph21.9 mph0.00 inSnowLight Snow
4:53 PM28.0 °F24.1 °F85 %29.73 in0.2 miWest (280°)10.4 mph21.9 mph0.01 inFog-SnowSnow
5:03 PM28.4 °F23.0 °F80 %29.72 in1.2 miWest (270°)9.2 mph0.00 inSnowLight Snow
5:25 PM30.2 °F15.8 °F55 %29.73 in10.0 miWest (270°)13.8 mph25.3 mph0.00 inMostly Cloudy
5:53 PM28.0 °F12.0 °F51 %29.77 in10.0 miWest (270°)10.4 mph26.5 mph0.00 inMostly Cloudy
7:53 PM28.0 °F10.9 °F49 %29.83 in10.0 miWest (280°)6.9 mphOvercast
8:53 PM27.0 °F12.0 °F53 %29.83 in10.0 miWest (260°)4.6 mphOvercast
9:53 PM28.0 °F12.9 °F53 %29.82 in10.0 miWSW (250°)4.6 mphOvercast
10:53 PM27.0 °F15.1 °F61 %29.83 in10.0 miWSW (250°)8.1 mphOvercast
Hourly data recorded from KSEG, located miles away from Freeburg, Pennsylvania







STORIES FROM OUR PARTNERS